Weather Service Report


320 
ASUS44 KLZK 230105
RWRLZK

WEATHER ROUNDUP FOR ARKANSAS
NATIONAL WEATHER SERVICE LITTLE ROCK AR
800 PM CDT MON SEP 22 2014

NOTE: "FAIR" INDICATES FEW OR NO CLOUDS BELOW 12,000 FEET WITH NO
SIGNIFICANT WEATHER AND/OR OBSTRUCTIONS TO VISIBILITY.

ARZ001-003-010-029-230200-
NORTHWEST ARKANSAS
  
CITY           SKY/WX    TMP DP  RH WIND       PRES   REMARKS
FAYETTEVILLE   PTCLDY    60  55  83 CALM      30.21S                  
FORT SMITH     CLEAR     70  55  59 SE5       30.17S                  
HARRISON       CLEAR     61  52  72 CALM      30.23R                  
BENTONVILLE    PTCLDY    66  52  59 NE5       30.23R                  
ROGERS         PTCLDY    64  53  67 NE3       30.23S                  
SILOAM SPGS    CLEAR     64  48  55 NE3       30.22S                  
HIGHFILL       PTCLDY    63  53  70 N3        30.21S                  
$$

ARZ004-005-016-230200-
NORTH CENTRAL ARKANSAS
  
CITY           SKY/WX    TMP DP  RH WIND       PRES   REMARKS
BATESVILLE     CLEAR     66  48  52 NE3       30.20S                  
FLIPPIN        CLEAR     64  48  55 CALM      30.22R                  
MTN HOME       CLEAR     62  53  72 CALM      30.21S                  
$$

ARZ040-041-230200-
WEST CENTRAL ARKANSAS
  
CITY           SKY/WX    TMP DP  RH WIND       PRES   REMARKS
MENA           CLEAR     66  57  72 CALM      30.19S                  
MOUNT IDA      CLEAR     63  59  87 CALM      30.17R                  
$$

ARZ009-017-025-026-028-230200-
NORTHEAST ARKANSAS
  
CITY           SKY/WX    TMP DP  RH WIND       PRES   REMARKS
CORNING          N/A     64  52  63 NE7       30.22R                  
JONESBORO      CLEAR     61  53  75 CALM      30.20R                  
NEWPORT        CLEAR     62  51  67 NE7       30.21R                  
WALNUT RIDGE   CLEAR     63  52  67 NE6       30.20R                  
BLYTHEVILLE    CLEAR     59  51  75 NE5       30.20R                  
$$

ARZ022-023-033-042-044-230200-
CENTRAL ARKANSAS
  
CITY           SKY/WX    TMP DP  RH WIND       PRES   REMARKS
LITTLE ROCK    PTCLDY    67  52  58 NE5       30.18R                  
N LITTLE ROCK  PTCLDY    67  55  66 NE5       30.18R                  
JACKSONVILLE   CLEAR     65  54  65 CALM      30.18R                  
SEARCY         CLEAR     66  51  58 NE7       30.20R                  
HOT SPRINGS    CLEAR     71  52  50 NE5       30.17S                  
RUSSELLVILLE   PTCLDY    63  57  81 E3        30.18R                  
CLINTON        FAIR      63  57  82 CALM      30.21R                  
$$

ARZ036-230200-
EAST ARKANSAS
  
CITY           SKY/WX    TMP DP  RH WIND       PRES   REMARKS
WEST MEMPHIS   CLEAR     65  53  65 NE6       30.17R                  
$$

ARZ050-053-066-070-073-230200-
SOUTHWEST ARKANSAS
  
CITY           SKY/WX    TMP DP  RH WIND       PRES   REMARKS
ARKADELPHIA    FAIR      64  62  93 CALM      30.16S                  
CAMDEN         CLEAR     64  54  68 NE3       30.14S                  
TEXARKANA      CLEAR     65  55  70 NE3       30.14S                  
EL DORADO      CLEAR     68  54  60 N6        30.14S                  
DE QUEEN       CLEAR     65  60  84 CALM      30.14R                  
$$

ARZ056-057-069-230200-
SOUTHEAST ARKANSAS
  
CITY           SKY/WX    TMP DP  RH WIND       PRES   REMARKS
PINE BLUFF     CLEAR     68  53  58 N7        30.16S                  
STUTTGART      CLEAR     63  52  67 N9        30.18S                  
MONTICELLO     CLEAR     70  53  54 VRB3      30.14S                  

$$



Return to Home page


Western Regional Climate Center, wrcc@dri.edu